IRIDIUM 33 DEB

Satellite information

Favourite Embed

Satellite Type and Status

DEBRISDECAYED

Key statistics

Satellite IRIDIUM 33 DEB at a glance.

Uptime

10270

Days in orbit

Revolutions

≈ 15.4

Per day

Orbit

LEO

Low Earth Orbit

Inclination

86.2

Latest

Satellite identification and parameters

Extended collection of information and parameters for IRIDIUM 33 DEB.

Object identification

Identified? True

Debris? True

Object name: IRIDIUM 33 DEB

International designator: 1997-051TU

Object number (NORAD): 35911

Object ID (CCSDS): 35911

Country: UNITED STATES OF AMERICA (US)

Current information (Y/N): Y

RCS size: SMALL

Orbital parameters

Decay date: Oct. 27, 2025

Period: 93.246 minutes

Inclination: 86.1905 deg

SMA: 6811.583 km

Apoapsis: 448.816 km

Periapsis: 418.08 km

RAAN: 5.184 deg

Eccentricy: 0.00225618

Argument of periapsis: 260.2785 deg

Mean anomaly: 99.5923 deg

Mean motion: 15.4429646 rev/day

Mean motion (dot): 0.00957929 rev/day2

B* drag term: 0.018959666 1/REarth

Two-line elements (TLE)

Creation date: Oct. 28, 2025, 2:18 a.m.

Reference frame: TEME

Reference center: EARTH

Epoch: Oct. 13, 2025, 11:49 a.m. UTC

TLE line 0: 0 IRIDIUM 33 DEB

TLE line 1: 1 35911U 97051TU 25286.49300338 .00957929 00000-0 18960-1 0 9990

TLE line 2: 2 35911 86.1905 5.1840 0022562 260.2785 99.5923 15.44296460861929

Live tracking on map

Satellite IRIDIUM 33 DEB has decayed and is no longer in orbit. No tracking available.

In-orbit conjunctions

Satellite IRIDIUM 33 DEB has decayed and is no longer in orbit. No conjunctions available.

Associated space launch

Iridium provides global mobile telecommunications services using a constellation of 66 low earth orbit satellites in a 86.4° inclined orbit. Although 77 satellites were originally envisioned for the system and spawned the name based on the 77th element in the periodic table, the system has been scaled back. Motorola's Satellite Communications Group designed and manufactured the Iridium satellites with Lockheed Martin providing the LM-700A spacecraft buses.

IRIDIUM 33 DEB was lifted into orbit during the mission ‘Proton-K/17S40 | Iridium 27 to 33’, on board a Proton-K/17S40 space rocket.

The launch took place on Sept. 14, 1997, 1:36 a.m. from 81/23 (81L).

For more information about the launch, click the button.

Launch to space Proton-K/17S40 | Iridium 27 to 33
Proton-K/17S40 | Iridium 27 to 33

Agency: N/A

Status: Launch Successful

Launch date: Sept. 14, 1997, 1:36 a.m. UTC

Rocket: Proton-K/17S40

Launch pad: 81/23 (81L)

Location: Baikonur Cosmodrome, Republic of Kazakhstan

...

Latest news about this satellite

There are no fresh news available about this satellite. Check back as we update our databases every day.


Newsletter sign-up

Weekly statistics, charts and insights to help you stay on top of the space industry.